Location: Casteau
(50.5142°N, 4.0161°E)
Time: 03:13:46
(UTC+00:00)

Lacrosse 4 Rocket - Pass Details

Date: 18 September 2020
Orbit: 543 x 615 km, 68.0° (Epoch: 24 October)

Event Time Altitude Azimuth Distance (km) Brightness Sun altitude
Rises 20:57:32 0° 328° (NNW) 2,717 6.0 -27.9°
Reaches altitude 10° 20:59:51 10° 337° (NNW) 1,822 4.8 -28.1°
Enters shadow 21:02:05 27° 359° (N) 1,072 3.1 -28.4°
